Location: Essen
(51.4609°N, 7.0127°E)
Time: 03:57:48
(UTC+01:00)

ISS - Pass Details

Date: 15 November 2017
Orbit: 402 x 407 km, 51.6° (Epoch: 21 November)

Event Time Altitude Azimuth Distance (km) Brightness Sun altitude
Exits shadow 06:28:01 15° 240° (WSW) 1,204 -1.9 -12.7°
Maximum altitude 06:29:01 17° 218° (SW) 1,123 -1.8 -12.5°
Drops below altitude 10° 06:31:10 10° 177° (S) 1,450 -0.8 -12.2°
Sets 06:33:44 0° 155° (SSE) 2,305 0.6 -11.8°
